Location: Napoli
(40.8639°N, 14.2562°E)
Time: 04:31:28
(UTC+02:00)

ISS - Pass Details

Date: 07 October 2017
Orbit: 401 x 408 km, 51.6° (Epoch: 23 October)

Event Time Altitude Azimuth Distance (km) Brightness Sun altitude
Rises 20:30:40 0° 311° (NW) 2,329 1.0 -22.6°
Reaches altitude 10° 20:33:09 10° 330° (NNW) 1,469 -0.5 -23.0°
Enters shadow 20:34:32 17° 352° (N) 1,133 -1.4 -23.3°
